Time,TemperatureF,DewpointF,PressureIn,WindDirection,WindDirectionDegrees,WindSpeedMPH,WindSpeedGustMPH,Humidity,HourlyPrecipIn,Conditions,Clouds,dailyrainin,SoftwareType,DateUTC
2013-09-07 00:01:00,57.6,49.3,30.09,WSW,248,0.2,3.4,74,2.59,,,0.32,WUHU216HW,2013-09-07 04:01:00,
2013-09-07 00:02:00,57.4,49.1,30.09,WSW,248,1.3,3.4,74,2.59,,,0.32,WUHU216HW,2013-09-07 04:02:00,
2013-09-07 00:07:00,57.2,49.0,30.09,WSW,248,1.3,3.4,74,2.59,,,0.32,WUHU216HW,2013-09-07 04:07:00,
2013-09-07 00:12:00,57.1,48.8,30.09,West,270,0.7,2.2,74,2.59,,,0.32,WUHU216HW,2013-09-07 04:12:00,
2013-09-07 00:17:00,57.1,48.8,30.09,South,180,1.6,2.2,74,2.59,,,0.32,WUHU216HW,2013-09-07 04:17:00,
2013-09-07 00:22:00,57.1,48.8,30.09,WNW,293,0.9,2.2,74,2.59,,,0.32,WUHU216HW,2013-09-07 04:22:00,
2013-09-07 00:27:00,57.1,49.1,30.09,WNW,293,0.4,1.6,75,2.59,,,0.32,WUHU216HW,2013-09-07 04:27:00,
2013-09-07 00:32:00,57.2,49.3,30.09,SW,225,0.4,2.0,75,2.59,,,0.32,WUHU216HW,2013-09-07 04:32:00,
2013-09-07 00:37:00,57.2,49.3,30.08,WSW,248,1.8,2.0,75,2.59,,,0.32,WUHU216HW,2013-09-07 04:37:00,
2013-09-07 00:42:00,57.2,49.3,30.08,SSW,203,2.2,3.4,75,2.59,,,0.32,WUHU216HW,2013-09-07 04:42:00,
2013-09-07 00:47:00,57.1,49.5,30.07,WSW,248,3.1,3.4,76,2.59,,,0.32,WUHU216HW,2013-09-07 04:47:00,
2013-09-07 00:52:00,56.9,49.3,30.08,SW,225,2.5,3.4,76,2.59,,,0.32,WUHU216HW,2013-09-07 04:52:00,
2013-09-07 00:57:00,56.9,49.3,30.07,West,270,1.1,3.4,76,2.59,,,0.32,WUHU216HW,2013-09-07 04:57:00,
2013-09-07 01:02:00,56.9,49.3,30.08,WSW,248,2.7,3.4,76,2.59,,,0.65,WUHU216HW,2013-09-07 05:02:00,
2013-09-07 01:07:00,56.7,49.1,30.08,SSE,158,2.7,3.6,76,2.59,,,0.65,WUHU216HW,2013-09-07 05:07:00,
2013-09-07 01:12:00,56.9,49.3,30.08,SSW,203,1.8,3.6,76,2.59,,,0.65,WUHU216HW,2013-09-07 05:12:00,
2013-09-07 01:17:00,56.9,49.7,30.07,WSW,248,1.8,4.0,77,2.59,,,0.65,WUHU216HW,2013-09-07 05:17:00,
2013-09-07 01:22:00,56.9,49.7,30.07,SSW,203,1.1,4.0,77,2.59,,,0.65,WUHU216HW,2013-09-07 05:22:00,
2013-09-07 01:27:00,56.9,49.3,30.07,SSW,203,0.9,3.1,76,2.59,,,0.65,WUHU216HW,2013-09-07 05:27:00,
2013-09-07 01:32:00,56.9,49.3,30.07,NNW,338,1.3,2.5,76,2.59,,,0.65,WUHU216HW,2013-09-07 05:32:00,
2013-09-07 01:37:00,56.7,49.1,30.07,WNW,293,1.1,2.0,76,2.59,,,0.65,WUHU216HW,2013-09-07 05:37:00,
2013-09-07 01:42:00,56.7,49.1,30.07,West,270,1.8,2.2,76,2.59,,,0.65,WUHU216HW,2013-09-07 05:42:00,
2013-09-07 01:47:00,56.5,49.0,30.07,WNW,293,2.0,2.2,76,2.59,,,0.65,WUHU216HW,2013-09-07 05:47:00,
2013-09-07 01:52:00,56.5,49.0,30.07,West,270,2.2,2.2,76,2.59,,,0.65,WUHU216HW,2013-09-07 05:52:00,
2013-09-07 01:57:00,56.3,48.8,30.07,NW,315,0.9,2.5,76,2.59,,,0.65,WUHU216HW,2013-09-07 05:57:00,
2013-09-07 02:02:00,56.2,48.6,30.07,WNW,293,1.3,2.5,76,2.59,,,0.97,WUHU216HW,2013-09-07 06:02:00,
2013-09-07 02:07:00,56.2,48.6,30.07,West,270,1.1,1.8,76,2.59,,,0.97,WUHU216HW,2013-09-07 06:07:00,
2013-09-07 02:12:00,56.2,48.6,30.07,West,270,0.9,1.8,76,2.59,,,0.97,WUHU216HW,2013-09-07 06:12:00,
2013-09-07 02:17:00,56.2,49.0,30.07,NW,315,0.9,2.0,77,2.59,,,0.97,WUHU216HW,2013-09-07 06:17:00,
2013-09-07 02:22:00,56.2,49.0,30.06,SSW,203,0.0,2.0,77,2.59,,,0.97,WUHU216HW,2013-09-07 06:22:00,
2013-09-07 02:27:00,56.3,49.1,30.07,NNW,338,0.0,0.9,77,2.59,,,0.97,WUHU216HW,2013-09-07 06:27:00,
2013-09-07 02:32:00,56.2,49.0,30.06,NNW,338,0.0,0.4,77,2.59,,,0.97,WUHU216HW,2013-09-07 06:32:00,
2013-09-07 02:37:00,56.2,49.0,30.06,WNW,293,1.1,1.1,77,2.59,,,0.97,WUHU216HW,2013-09-07 06:37:00,
2013-09-07 02:42:00,56.0,48.8,30.06,North,0,0.4,1.3,77,2.59,,,0.97,WUHU216HW,2013-09-07 06:42:00,
2013-09-07 02:47:00,55.8,48.6,30.06,North,0,0.0,1.3,77,2.59,,,0.97,WUHU216HW,2013-09-07 06:47:00,
2013-09-07 02:52:00,55.8,48.6,30.06,North,0,0.0,1.1,77,2.59,,,0.97,WUHU216HW,2013-09-07 06:52:00,
2013-09-07 02:57:00,55.6,48.8,30.06,North,0,0.0,0.0,78,2.59,,,0.97,WUHU216HW,2013-09-07 06:57:00,
2013-09-07 03:02:00,55.6,48.8,30.06,North,0,0.0,0.0,78,2.59,,,1.30,WUHU216HW,2013-09-07 07:02:00,
2013-09-07 03:07:00,55.4,48.6,30.05,SSW,203,0.0,1.1,78,2.59,,,1.30,WUHU216HW,2013-09-07 07:07:00,
2013-09-07 03:12:00,55.4,48.6,30.05,SW,225,0.7,1.6,78,2.59,,,1.30,WUHU216HW,2013-09-07 07:12:00,
2013-09-07 03:17:00,55.3,48.5,30.05,West,270,1.1,1.6,78,2.59,,,1.30,WUHU216HW,2013-09-07 07:17:00,
2013-09-07 03:22:00,55.3,48.5,30.05,NW,315,0.2,1.1,78,2.59,,,1.30,WUHU216HW,2013-09-07 07:22:00,
2013-09-07 03:27:00,55.3,48.8,30.05,NW,315,0.0,1.1,79,2.59,,,1.30,WUHU216HW,2013-09-07 07:27:00,
2013-09-07 03:32:00,55.3,48.8,30.05,SE,135,0.0,1.8,79,2.59,,,1.30,WUHU216HW,2013-09-07 07:32:00,
2013-09-07 03:37:00,55.1,48.7,30.05,South,180,0.9,1.8,79,2.59,,,1.30,WUHU216HW,2013-09-07 07:37:00,
2013-09-07 03:42:00,55.1,48.7,30.05,SW,225,1.8,2.2,79,2.59,,,1.30,WUHU216HW,2013-09-07 07:42:00,
2013-09-07 03:47:00,54.9,48.5,30.05,SW,225,0.4,2.2,79,2.59,,,1.30,WUHU216HW,2013-09-07 07:47:00,
2013-09-07 03:52:00,55.1,48.7,30.05,WSW,248,1.1,2.5,79,2.59,,,1.30,WUHU216HW,2013-09-07 07:52:00,
2013-09-07 03:57:00,55.1,48.7,30.05,WSW,248,0.4,2.5,79,2.59,,,1.30,WUHU216HW,2013-09-07 07:57:00,
2013-09-07 04:02:00,55.1,48.7,30.05,SSW,203,0.7,1.8,79,2.59,,,1.62,WUHU216HW,2013-09-07 08:02:00,
2013-09-07 04:07:00,55.3,48.5,30.05,West,270,1.1,1.8,78,2.59,,,1.62,WUHU216HW,2013-09-07 08:07:00,
2013-09-07 04:12:00,55.4,48.6,30.05,South,180,0.9,1.1,78,2.59,,,1.62,WUHU216HW,2013-09-07 08:12:00,
2013-09-07 04:17:00,55.4,48.6,30.05,SW,225,1.8,1.8,78,2.59,,,1.62,WUHU216HW,2013-09-07 08:17:00,
2013-09-07 04:22:00,55.4,49.0,30.05,WSW,248,0.9,2.0,79,2.59,,,1.62,WUHU216HW,2013-09-07 08:22:00,
2013-09-07 04:27:00,55.4,49.0,30.05,WSW,248,2.2,2.2,79,2.59,,,1.62,WUHU216HW,2013-09-07 08:27:00,
2013-09-07 04:32:00,55.4,49.0,30.05,West,270,0.4,2.7,79,2.59,,,1.62,WUHU216HW,2013-09-07 08:32:00,
2013-09-07 04:37:00,55.4,48.6,30.05,WSW,248,1.6,2.7,78,2.59,,,1.62,WUHU216HW,2013-09-07 08:37:00,
2013-09-07 04:42:00,55.4,48.6,30.05,WSW,248,1.1,2.2,78,2.59,,,1.62,WUHU216HW,2013-09-07 08:42:00,
2013-09-07 04:47:00,55.3,48.5,30.04,WSW,248,0.9,1.8,78,2.59,,,1.62,WUHU216HW,2013-09-07 08:47:00,
2013-09-07 04:52:00,55.4,48.6,30.04,NW,315,1.1,2.2,78,2.59,,,1.62,WUHU216HW,2013-09-07 08:52:00,
2013-09-07 04:57:00,55.4,48.6,30.05,West,270,1.1,2.2,78,2.59,,,1.62,WUHU216HW,2013-09-07 08:57:00,
2013-09-07 05:02:00,55.4,48.6,30.05,SW,225,1.6,2.2,78,2.59,,,1.95,WUHU216HW,2013-09-07 09:02:00,
2013-09-07 05:07:00,55.6,49.1,30.04,SSW,203,3.1,3.1,79,2.59,,,1.95,WUHU216HW,2013-09-07 09:07:00,
2013-09-07 05:12:00,55.6,49.1,30.04,SW,225,2.5,3.1,79,2.59,,,1.95,WUHU216HW,2013-09-07 09:12:00,
2013-09-07 05:17:00,55.6,49.1,30.04,WSW,248,2.7,4.0,79,2.59,,,1.95,WUHU216HW,2013-09-07 09:17:00,
2013-09-07 05:22:00,55.6,49.1,30.04,WSW,248,1.8,4.0,79,2.59,,,1.95,WUHU216HW,2013-09-07 09:22:00,
2013-09-07 05:27:00,55.6,48.8,30.04,SW,225,1.1,3.6,78,2.59,,,1.95,WUHU216HW,2013-09-07 09:27:00,
2013-09-07 05:32:00,55.8,49.0,30.04,WSW,248,2.0,3.6,78,2.59,,,1.95,WUHU216HW,2013-09-07 09:32:00,
2013-09-07 05:37:00,55.8,49.0,30.03,West,270,1.3,3.4,78,2.59,,,1.95,WUHU216HW,2013-09-07 09:37:00,
2013-09-07 05:42:00,55.8,49.0,30.03,WSW,248,2.5,3.4,78,2.59,,,1.95,WUHU216HW,2013-09-07 09:42:00,
2013-09-07 05:47:00,56.0,48.8,30.04,WSW,248,1.8,3.4,77,2.59,,,1.95,WUHU216HW,2013-09-07 09:47:00,
2013-09-07 05:52:00,56.0,49.1,30.03,SW,225,3.1,3.1,78,2.59,,,1.95,WUHU216HW,2013-09-07 09:52:00,
2013-09-07 05:57:00,56.2,49.3,30.04,WSW,248,2.2,3.1,78,2.59,,,1.95,WUHU216HW,2013-09-07 09:57:00,
2013-09-07 06:02:00,56.2,49.0,30.03,SSW,203,1.1,2.7,77,2.59,,,2.27,WUHU216HW,2013-09-07 10:02:00,
2013-09-07 06:07:00,56.2,49.0,30.03,SSW,203,0.7,2.7,77,2.59,,,2.27,WUHU216HW,2013-09-07 10:07:00,
2013-09-07 06:12:00,56.2,49.0,30.03,WSW,248,0.4,3.4,77,2.59,,,2.27,WUHU216HW,2013-09-07 10:12:00,
2013-09-07 06:17:00,56.2,49.0,30.03,SW,225,0.2,3.4,77,2.59,,,2.27,WUHU216HW,2013-09-07 10:17:00,
2013-09-07 06:22:00,56.2,48.6,30.02,South,180,0.4,2.9,76,2.59,,,2.27,WUHU216HW,2013-09-07 10:22:00,
2013-09-07 06:27:00,56.3,49.1,30.03,West,270,1.1,2.5,77,2.59,,,2.27,WUHU216HW,2013-09-07 10:27:00,
2013-09-07 06:32:00,56.3,48.8,30.02,SE,135,0.9,1.8,76,2.59,,,2.27,WUHU216HW,2013-09-07 10:32:00,
2013-09-07 06:37:00,56.5,49.3,30.03,West,270,1.3,1.3,77,2.59,,,2.27,WUHU216HW,2013-09-07 10:37:00,
2013-09-07 06:42:00,56.3,49.1,30.03,WSW,248,1.8,1.8,77,2.59,,,2.27,WUHU216HW,2013-09-07 10:42:00,
2013-09-07 06:47:00,56.5,49.0,30.03,SSW,203,1.6,2.2,76,2.59,,,2.27,WUHU216HW,2013-09-07 10:47:00,
2013-09-07 06:52:00,56.5,49.0,30.02,SSW,203,1.3,2.2,76,2.59,,,2.27,WUHU216HW,2013-09-07 10:52:00,
2013-09-07 06:57:00,56.5,49.0,30.03,West,270,1.3,2.2,76,2.59,,,2.27,WUHU216HW,2013-09-07 10:57:00,
2013-09-07 07:02:00,56.5,49.0,30.03,SW,225,0.9,2.5,76,2.59,,,2.60,WUHU216HW,2013-09-07 11:02:00,
2013-09-07 07:07:00,56.7,49.1,30.03,SW,225,0.9,2.7,76,2.59,,,2.60,WUHU216HW,2013-09-07 11:07:00,
2013-09-07 07:12:00,56.7,49.1,30.03,NNW,338,2.9,4.0,76,2.59,,,2.60,WUHU216HW,2013-09-07 11:12:00,
2013-09-07 07:17:00,56.9,49.3,30.03,SW,225,1.6,4.0,76,2.59,,,2.60,WUHU216HW,2013-09-07 11:17:00,
2013-09-07 07:22:00,56.9,49.3,30.02,SW,225,1.1,3.6,76,2.59,,,2.60,WUHU216HW,2013-09-07 11:22:00,
2013-09-07 07:27:00,57.1,49.5,30.03,West,270,1.8,3.6,76,2.59,,,2.60,WUHU216HW,2013-09-07 11:27:00,
2013-09-07 07:32:00,57.2,49.3,30.03,WNW,293,2.0,2.7,75,2.59,,,2.60,WUHU216HW,2013-09-07 11:32:00,
2013-09-07 07:37:00,57.2,49.3,30.04,NW,315,0.9,2.7,75,2.59,,,2.60,WUHU216HW,2013-09-07 11:37:00,
2013-09-07 07:42:00,57.2,49.3,30.04,WNW,293,0.9,1.8,75,2.59,,,2.60,WUHU216HW,2013-09-07 11:42:00,
2013-09-07 07:47:00,57.4,49.5,30.04,West,270,0.0,1.1,75,2.59,,,2.60,WUHU216HW,2013-09-07 11:47:00,
2013-09-07 07:52:00,57.6,49.7,30.03,SW,225,1.8,1.8,75,2.59,,,2.60,WUHU216HW,2013-09-07 11:52:00,
2013-09-07 07:57:00,57.6,49.7,30.03,SSE,158,0.4,2.2,75,2.59,,,2.60,WUHU216HW,2013-09-07 11:57:00,
2013-09-07 08:02:00,57.8,49.9,30.03,WSW,248,0.2,2.2,75,2.59,,,2.92,WUHU216HW,2013-09-07 12:02:00,
2013-09-07 08:07:00,57.8,50.2,30.03,NNE,23,0.2,1.8,76,2.59,,,2.92,WUHU216HW,2013-09-07 12:07:00,
2013-09-07 08:12:00,57.8,50.2,30.04,ENE,68,0.0,0.4,76,2.59,,,2.92,WUHU216HW,2013-09-07 12:12:00,
2013-09-07 08:17:00,57.8,49.9,30.03,SSW,203,0.0,0.4,75,2.59,,,2.92,WUHU216HW,2013-09-07 12:17:00,
2013-09-07 08:22:00,58.0,50.0,30.04,NW,315,0.0,0.2,75,2.59,,,2.92,WUHU216HW,2013-09-07 12:22:00,
2013-09-07 08:27:00,58.1,50.6,30.03,ENE,68,0.0,0.0,76,2.59,,,2.92,WUHU216HW,2013-09-07 12:27:00,
2013-09-07 08:32:00,58.3,50.8,30.03,ESE,113,0.0,0.0,76,2.59,,,2.92,WUHU216HW,2013-09-07 12:32:00,
2013-09-07 08:37:00,58.7,51.1,30.03,South,180,0.0,0.0,76,2.59,,,2.92,WUHU216HW,2013-09-07 12:37:00,
2013-09-07 08:42:00,59.0,51.5,30.03,SW,225,0.9,1.6,76,2.59,,,2.92,WUHU216HW,2013-09-07 12:42:00,
2013-09-07 08:47:00,59.4,51.8,30.03,SW,225,1.3,1.8,76,2.59,,,2.92,WUHU216HW,2013-09-07 12:47:00,
2013-09-07 08:52:00,59.8,51.8,30.03,SW,225,0.9,2.2,75,2.59,,,2.92,WUHU216HW,2013-09-07 12:52:00,
2013-09-07 08:57:00,60.1,52.2,30.02,SW,225,1.6,3.4,75,2.59,,,2.92,WUHU216HW,2013-09-07 12:57:00,
2013-09-07 09:02:00,60.3,52.4,30.03,WSW,248,1.3,3.4,75,2.59,,,3.25,WUHU216HW,2013-09-07 13:02:00,
2013-09-07 09:07:00,60.3,52.4,30.02,WSW,248,1.8,3.4,75,2.59,,,3.25,WUHU216HW,2013-09-07 13:07:00,
2013-09-07 09:12:00,60.5,52.6,30.02,West,270,2.5,3.4,75,2.59,,,3.25,WUHU216HW,2013-09-07 13:12:00,
2013-09-07 09:17:00,60.8,52.6,30.02,SSW,203,1.8,3.6,74,2.59,,,3.25,WUHU216HW,2013-09-07 13:17:00,
2013-09-07 09:22:00,61.0,52.8,30.02,WNW,293,2.9,3.6,74,2.59,,,3.25,WUHU216HW,2013-09-07 13:22:00,
2013-09-07 09:27:00,61.2,52.6,30.02,West,270,0.9,2.9,73,2.59,,,3.25,WUHU216HW,2013-09-07 13:27:00,
2013-09-07 09:32:00,61.4,52.7,30.02,NNW,338,2.5,4.0,73,2.59,,,3.25,WUHU216HW,2013-09-07 13:32:00,
2013-09-07 09:37:00,61.7,52.7,30.02,WNW,293,4.3,4.5,72,2.59,,,3.25,WUHU216HW,2013-09-07 13:37:00,
2013-09-07 09:42:00,62.1,53.0,30.02,NW,315,4.3,5.4,72,2.59,,,3.25,WUHU216HW,2013-09-07 13:42:00,
2013-09-07 09:47:00,62.5,52.6,30.02,WSW,248,2.9,5.4,70,2.59,,,3.25,WUHU216HW,2013-09-07 13:47:00,
2013-09-07 09:52:00,62.8,52.5,30.02,NW,315,2.7,5.4,69,2.59,,,3.25,WUHU216HW,2013-09-07 13:52:00,
2013-09-07 09:57:00,63.2,52.8,30.02,WNW,293,2.7,4.9,69,2.59,,,3.25,WUHU216HW,2013-09-07 13:57:00,
2013-09-07 10:02:00,63.4,53.0,30.02,West,270,3.8,4.0,69,2.59,,,3.57,WUHU216HW,2013-09-07 14:02:00,
2013-09-07 10:07:00,63.7,52.6,30.02,WNW,293,2.7,5.8,67,2.59,,,3.57,WUHU216HW,2013-09-07 14:07:00,
2013-09-07 10:12:00,64.1,52.5,30.02,WNW,293,4.0,5.8,66,2.59,,,3.57,WUHU216HW,2013-09-07 14:12:00,
2013-09-07 10:17:00,64.4,52.4,30.02,West,270,4.5,6.5,65,2.59,,,3.57,WUHU216HW,2013-09-07 14:17:00,
2013-09-07 10:22:00,64.6,52.1,30.01,WSW,248,4.0,7.6,64,2.59,,,3.57,WUHU216HW,2013-09-07 14:22:00,
2013-09-07 10:27:00,64.6,52.6,30.01,West,270,3.1,7.6,65,2.59,,,3.57,WUHU216HW,2013-09-07 14:27:00,
2013-09-07 10:32:00,64.8,52.8,30.01,NW,315,5.4,6.3,65,2.59,,,3.57,WUHU216HW,2013-09-07 14:32:00,
2013-09-07 10:37:00,64.8,52.8,30.01,NW,315,3.1,5.4,65,2.59,,,3.57,WUHU216HW,2013-09-07 14:37:00,
2013-09-07 10:42:00,64.8,52.3,30.01,NW,315,4.3,5.4,64,2.59,,,3.57,WUHU216HW,2013-09-07 14:42:00,
2013-09-07 10:47:00,65.0,52.5,30.01,NW,315,2.0,4.3,64,2.59,,,3.57,WUHU216HW,2013-09-07 14:47:00,
2013-09-07 10:52:00,65.0,52.5,30.01,WNW,293,1.8,4.3,64,2.59,,,3.57,WUHU216HW,2013-09-07 14:52:00,
2013-09-07 10:57:00,65.2,52.7,30.00,SW,225,3.4,4.3,64,2.59,,,3.57,WUHU216HW,2013-09-07 14:57:00,
2013-09-07 11:02:00,65.2,52.7,29.99,SSW,203,5.4,5.4,64,2.59,,,3.90,WUHU216HW,2013-09-07 15:02:00,
2013-09-07 11:07:00,65.2,52.7,29.99,WNW,293,4.0,5.4,64,2.59,,,3.90,WUHU216HW,2013-09-07 15:07:00,
2013-09-07 11:12:00,65.2,52.2,30.00,WSW,248,5.4,5.4,63,2.59,,,3.90,WUHU216HW,2013-09-07 15:12:00,
2013-09-07 11:17:00,65.2,52.2,30.00,West,270,2.2,5.4,63,2.59,,,3.90,WUHU216HW,2013-09-07 15:17:00,
2013-09-07 11:22:00,65.3,52.4,30.00,NW,315,3.6,5.4,63,2.59,,,3.90,WUHU216HW,2013-09-07 15:22:00,
2013-09-07 11:27:00,65.3,52.4,30.00,West,270,2.5,4.3,63,2.59,,,3.90,WUHU216HW,2013-09-07 15:27:00,
2013-09-07 11:32:00,65.5,52.6,30.00,NW,315,4.3,6.0,63,2.59,,,3.90,WUHU216HW,2013-09-07 15:32:00,
2013-09-07 11:37:00,65.5,52.6,30.00,NW,315,4.9,6.0,63,2.59,,,3.90,WUHU216HW,2013-09-07 15:37:00,
2013-09-07 11:42:00,65.5,52.1,30.00,NW,315,2.9,8.3,62,2.59,,,3.90,WUHU216HW,2013-09-07 15:42:00,
2013-09-07 11:47:00,65.7,52.8,30.00,NW,315,3.6,8.3,63,2.59,,,3.90,WUHU216HW,2013-09-07 15:47:00,
2013-09-07 11:52:00,65.9,52.9,30.00,NW,315,3.8,5.6,63,2.59,,,3.90,WUHU216HW,2013-09-07 15:52:00,
2013-09-07 11:57:00,66.2,53.3,29.99,WSW,248,3.1,5.8,63,2.59,,,3.90,WUHU216HW,2013-09-07 15:57:00,
2013-09-07 12:02:00,66.4,53.5,29.99,NW,315,3.1,6.3,63,2.59,,,4.22,WUHU216HW,2013-09-07 16:02:00,
2013-09-07 12:07:00,66.6,53.7,29.99,NW,315,2.5,6.3,63,2.59,,,4.22,WUHU216HW,2013-09-07 16:07:00,
2013-09-07 12:12:00,66.4,53.5,29.99,NNW,338,4.7,6.3,63,2.59,,,4.22,WUHU216HW,2013-09-07 16:12:00,
2013-09-07 12:17:00,66.2,53.3,29.99,WNW,293,3.6,6.3,63,2.59,,,4.22,WUHU216HW,2013-09-07 16:17:00,
2013-09-07 12:22:00,66.2,53.3,29.99,NW,315,4.7,6.3,63,2.59,,,4.22,WUHU216HW,2013-09-07 16:22:00,
2013-09-07 12:27:00,66.1,53.1,29.99,NW,315,3.1,5.4,63,2.59,,,4.22,WUHU216HW,2013-09-07 16:27:00,
2013-09-07 12:32:00,65.9,52.9,29.99,NW,315,5.1,6.9,63,2.59,,,4.22,WUHU216HW,2013-09-07 16:32:00,
2013-09-07 12:37:00,65.9,52.9,29.99,WNW,293,5.4,6.9,63,2.59,,,4.22,WUHU216HW,2013-09-07 16:37:00,
2013-09-07 12:42:00,65.9,52.9,29.97,SW,225,4.3,6.7,63,2.59,,,4.22,WUHU216HW,2013-09-07 16:42:00,
2013-09-07 12:47:00,65.7,53.2,29.97,SW,225,5.1,6.9,64,2.59,,,4.22,WUHU216HW,2013-09-07 16:47:00,
2013-09-07 12:52:00,65.7,53.2,29.98,WNW,293,4.9,6.9,64,2.59,,,4.22,WUHU216HW,2013-09-07 16:52:00,
2013-09-07 12:57:00,65.7,53.2,29.97,WNW,293,3.4,6.7,64,2.59,,,4.22,WUHU216HW,2013-09-07 16:57:00,
2013-09-07 13:02:00,65.7,53.2,29.97,NW,315,3.4,6.9,64,2.59,,,4.55,WUHU216HW,2013-09-07 17:02:00,
2013-09-07 13:07:00,65.5,53.4,29.97,WNW,293,4.0,6.9,65,2.59,,,4.55,WUHU216HW,2013-09-07 17:07:00,
2013-09-07 13:12:00,65.2,53.5,29.97,NW,315,4.3,6.9,66,2.60,,,4.56,WUHU216HW,2013-09-07 17:12:00,
2013-09-07 13:17:00,64.8,54.0,29.97,West,270,4.0,6.9,68,2.60,,,4.56,WUHU216HW,2013-09-07 17:17:00,
2013-09-07 13:22:00,64.4,54.1,29.96,SW,225,6.0,6.9,69,2.60,,,4.56,WUHU216HW,2013-09-07 17:22:00,
2013-09-07 13:27:00,64.1,54.2,29.96,NW,315,6.3,7.6,70,2.60,,,4.56,WUHU216HW,2013-09-07 17:27:00,
2013-09-07 13:32:00,64.1,54.5,29.97,WNW,293,3.8,7.6,71,2.60,,,4.56,WUHU216HW,2013-09-07 17:32:00,
2013-09-07 13:37:00,63.9,54.4,29.97,WNW,293,6.0,7.8,71,2.60,,,4.56,WUHU216HW,2013-09-07 17:37:00,
2013-09-07 13:42:00,63.9,54.7,29.97,NW,315,6.9,7.8,72,2.60,,,4.56,WUHU216HW,2013-09-07 17:42:00,
2013-09-07 13:47:00,63.9,55.1,29.97,WNW,293,6.0,6.9,73,2.61,,,4.57,WUHU216HW,2013-09-07 17:47:00,
2013-09-07 13:52:00,63.4,54.9,29.96,NW,315,7.8,7.8,74,2.62,,,4.58,WUHU216HW,2013-09-07 17:52:00,
2013-09-07 13:57:00,62.8,54.7,29.97,NNW,338,7.6,9.6,75,2.62,,,4.58,WUHU216HW,2013-09-07 17:57:00,
2013-09-07 14:02:00,62.5,54.7,29.97,WNW,293,3.6,9.6,76,2.62,,,4.93,WUHU216HW,2013-09-07 18:02:00,
2013-09-07 14:07:00,62.1,54.8,29.97,West,270,4.3,8.5,77,2.63,,,4.94,WUHU216HW,2013-09-07 18:07:00,
2013-09-07 14:12:00,61.9,55.0,29.97,NW,315,6.9,8.5,78,2.62,,,4.94,WUHU216HW,2013-09-07 18:12:00,
2013-09-07 14:17:00,61.7,55.2,29.97,NW,315,5.4,9.4,79,2.62,,,4.94,WUHU216HW,2013-09-07 18:17:00,
2013-09-07 14:22:00,61.6,55.7,29.98,WSW,248,8.5,9.4,81,2.62,,,4.94,WUHU216HW,2013-09-07 18:22:00,
2013-09-07 14:27:00,61.4,55.5,29.97,West,270,5.4,8.5,81,2.63,,,4.95,WUHU216HW,2013-09-07 18:27:00,
2013-09-07 14:32:00,61.2,55.4,29.97,WNW,293,7.4,10.5,81,2.63,,,4.95,WUHU216HW,2013-09-07 18:32:00,
2013-09-07 14:37:00,61.0,55.5,29.97,NW,315,6.9,11.9,82,2.63,,,4.95,WUHU216HW,2013-09-07 18:37:00,
2013-09-07 14:42:00,60.8,55.7,29.97,NW,315,4.7,11.9,83,2.64,,,4.96,WUHU216HW,2013-09-07 18:42:00,
2013-09-07 14:47:00,60.5,55.6,29.98,West,270,8.3,9.4,84,2.65,,,4.98,WUHU216HW,2013-09-07 18:47:00,
2013-09-07 14:52:00,60.3,55.8,29.98,NW,315,7.6,10.5,85,2.65,,,4.99,WUHU216HW,2013-09-07 18:52:00,
2013-09-07 14:57:00,60.3,56.2,29.98,NNW,338,6.9,10.5,86,2.67,,,5.01,WUHU216HW,2013-09-07 18:57:00,
2013-09-07 15:02:00,60.1,56.0,29.97,NW,315,6.5,9.8,86,2.67,,,5.45,WUHU216HW,2013-09-07 19:02:00,
2013-09-07 15:07:00,60.1,56.3,29.97,NW,315,6.3,10.5,87,2.68,,,5.48,WUHU216HW,2013-09-07 19:07:00,
2013-09-07 15:12:00,60.1,56.6,29.97,WSW,248,4.7,10.5,88,2.70,,,5.50,WUHU216HW,2013-09-07 19:12:00,
2013-09-07 15:17:00,59.9,56.4,29.96,WNW,293,6.7,9.4,88,2.70,,,5.50,WUHU216HW,2013-09-07 19:17:00,
2013-09-07 15:22:00,59.9,56.1,29.96,WSW,248,4.0,8.9,87,2.71,,,5.51,WUHU216HW,2013-09-07 19:22:00,
2013-09-07 15:27:00,59.8,55.9,29.96,NNW,338,4.3,8.9,87,2.70,,,5.51,WUHU216HW,2013-09-07 19:27:00,
2013-09-07 15:32:00,59.8,55.9,29.96,West,270,8.5,8.5,87,2.70,,,5.51,WUHU216HW,2013-09-07 19:32:00,
2013-09-07 15:37:00,59.8,56.3,29.96,NW,315,4.3,9.6,88,2.69,,,5.51,WUHU216HW,2013-09-07 19:37:00,
2013-09-07 15:42:00,59.6,56.1,29.96,WNW,293,5.8,9.6,88,2.68,,,5.51,WUHU216HW,2013-09-07 19:42:00,
2013-09-07 15:47:00,59.6,56.1,29.96,West,270,5.6,8.9,88,2.68,,,5.52,WUHU216HW,2013-09-07 19:47:00,
2013-09-07 15:52:00,59.4,55.9,29.96,NW,315,6.0,7.6,88,2.67,,,5.53,WUHU216HW,2013-09-07 19:52:00,
2013-09-07 15:57:00,59.4,56.2,29.96,SW,225,5.1,7.2,89,2.67,,,5.54,WUHU216HW,2013-09-07 19:57:00,
2013-09-07 16:02:00,59.4,56.2,29.96,NW,315,5.4,7.6,89,2.67,,,6.07,WUHU216HW,2013-09-07 20:02:00,
2013-09-07 16:07:00,59.4,56.2,29.94,WSW,248,5.4,8.5,89,2.65,,,6.07,WUHU216HW,2013-09-07 20:07:00,
2013-09-07 16:12:00,59.6,56.7,29.94,WSW,248,4.0,8.5,90,2.64,,,6.08,WUHU216HW,2013-09-07 20:12:00,
2013-09-07 16:17:00,59.8,56.5,29.94,West,270,2.5,7.2,89,2.63,,,6.08,WUHU216HW,2013-09-07 20:17:00,
2013-09-07 16:22:00,59.8,56.5,29.93,WSW,248,2.9,6.3,89,2.63,,,6.08,WUHU216HW,2013-09-07 20:22:00,
2013-09-07 16:27:00,59.8,56.5,29.93,SSW,203,5.4,5.4,89,2.63,,,6.08,WUHU216HW,2013-09-07 20:27:00,
2013-09-07 16:32:00,59.9,56.7,29.93,WSW,248,2.5,5.6,89,2.63,,,6.08,WUHU216HW,2013-09-07 20:32:00,
2013-09-07 16:37:00,60.1,56.9,29.93,West,270,3.1,5.6,89,2.63,,,6.08,WUHU216HW,2013-09-07 20:37:00,
2013-09-07 16:42:00,60.1,56.9,29.93,WSW,248,4.7,4.7,89,2.63,,,6.08,WUHU216HW,2013-09-07 20:42:00,
2013-09-07 16:47:00,60.1,56.9,29.93,SSW,203,0.4,4.7,89,2.62,,,6.08,WUHU216HW,2013-09-07 20:47:00,
2013-09-07 16:52:00,60.3,57.1,29.93,WNW,293,2.9,4.0,89,2.61,,,6.08,WUHU216HW,2013-09-07 20:52:00,
2013-09-07 16:57:00,60.3,57.1,29.93,West,270,4.0,4.7,89,2.60,,,6.08,WUHU216HW,2013-09-07 20:57:00,
2013-09-07 17:02:00,60.5,57.2,29.93,South,180,6.0,6.0,89,2.60,,,6.62,WUHU216HW,2013-09-07 21:02:00,
2013-09-07 17:07:00,60.5,57.2,29.92,NW,315,2.0,6.0,89,2.60,,,6.62,WUHU216HW,2013-09-07 21:07:00,
2013-09-07 17:12:00,60.5,57.0,29.93,NNW,338,2.2,5.1,88,2.59,,,6.62,WUHU216HW,2013-09-07 21:12:00,
2013-09-07 17:17:00,60.5,57.0,29.93,WNW,293,3.8,5.1,88,2.59,,,6.62,WUHU216HW,2013-09-07 21:17:00,
2013-09-07 17:22:00,60.7,57.2,29.92,West,270,0.9,4.3,88,2.59,,,6.62,WUHU216HW,2013-09-07 21:22:00,
2013-09-07 17:27:00,60.7,57.2,29.92,SSW,203,4.9,4.9,88,2.59,,,6.62,WUHU216HW,2013-09-07 21:27:00,
2013-09-07 17:32:00,60.7,57.2,29.91,SW,225,2.5,5.4,88,2.59,,,6.62,WUHU216HW,2013-09-07 21:32:00,
2013-09-07 17:37:00,60.8,57.3,29.91,SSW,203,0.9,5.4,88,2.59,,,6.62,WUHU216HW,2013-09-07 21:37:00,
2013-09-07 17:42:00,60.8,57.3,29.91,SW,225,2.5,4.0,88,2.59,,,6.62,WUHU216HW,2013-09-07 21:42:00,
2013-09-07 17:47:00,61.0,57.5,29.91,NW,315,2.5,4.0,88,2.59,,,6.62,WUHU216HW,2013-09-07 21:47:00,
2013-09-07 17:52:00,61.2,57.7,29.91,West,270,4.5,4.5,88,2.59,,,6.62,WUHU216HW,2013-09-07 21:52:00,
2013-09-07 17:57:00,61.2,57.7,29.91,SW,225,3.8,5.8,88,2.59,,,6.62,WUHU216HW,2013-09-07 21:57:00,
2013-09-07 18:02:00,61.4,57.9,29.91,SW,225,3.4,5.8,88,2.59,,,7.16,WUHU216HW,2013-09-07 22:02:00,
2013-09-07 18:07:00,61.6,58.3,29.91,NW,315,2.5,6.3,89,2.59,,,7.16,WUHU216HW,2013-09-07 22:07:00,
2013-09-07 18:12:00,61.6,58.1,29.91,West,270,1.8,6.3,88,2.59,,,7.16,WUHU216HW,2013-09-07 22:12:00,
2013-09-07 18:17:00,61.7,58.2,29.90,SW,225,2.5,4.7,88,2.59,,,7.16,WUHU216HW,2013-09-07 22:17:00,
2013-09-07 18:22:00,61.7,58.2,29.91,WSW,248,1.8,3.4,88,2.59,,,7.16,WUHU216HW,2013-09-07 22:22:00,
2013-09-07 18:27:00,61.9,58.4,29.91,NW,315,2.5,3.4,88,2.59,,,7.16,WUHU216HW,2013-09-07 22:27:00,
2013-09-07 18:32:00,62.1,58.6,29.91,WNW,293,2.5,4.0,88,2.59,,,7.16,WUHU216HW,2013-09-07 22:32:00,
2013-09-07 18:37:00,62.3,58.7,29.91,NW,315,1.8,4.5,88,2.59,,,7.16,WUHU216HW,2013-09-07 22:37:00,
2013-09-07 18:42:00,62.3,58.7,29.91,West,270,1.8,4.5,88,2.59,,,7.16,WUHU216HW,2013-09-07 22:42:00,
2013-09-07 18:47:00,62.5,58.9,29.91,SW,225,3.4,4.3,88,2.59,,,7.16,WUHU216HW,2013-09-07 22:47:00,
2013-09-07 18:52:00,62.5,58.6,29.91,NW,315,2.0,4.3,87,2.59,,,7.16,WUHU216HW,2013-09-07 22:52:00,
2013-09-07 18:57:00,62.6,58.8,29.91,WNW,293,2.9,4.3,87,2.59,,,7.16,WUHU216HW,2013-09-07 22:57:00,
2013-09-07 19:02:00,62.8,59.0,29.91,NW,315,1.3,2.9,87,2.59,,,7.69,WUHU216HW,2013-09-07 23:02:00,
2013-09-07 19:07:00,63.0,59.1,29.91,West,270,0.9,2.9,87,2.59,,,7.69,WUHU216HW,2013-09-07 23:07:00,
2013-09-07 19:12:00,63.0,59.1,29.91,WNW,293,1.8,4.0,87,2.59,,,7.69,WUHU216HW,2013-09-07 23:12:00,
2013-09-07 19:17:00,63.0,59.1,29.91,WNW,293,1.6,4.0,87,2.59,,,7.69,WUHU216HW,2013-09-07 23:17:00,
2013-09-07 19:22:00,63.0,59.1,29.91,SW,225,3.4,4.0,87,2.59,,,7.69,WUHU216HW,2013-09-07 23:22:00,
2013-09-07 19:27:00,63.0,59.1,29.90,SW,225,2.0,3.4,87,2.59,,,7.69,WUHU216HW,2013-09-07 23:27:00,
2013-09-07 19:32:00,62.8,59.0,29.90,WNW,293,1.6,3.4,87,2.59,,,7.69,WUHU216HW,2013-09-07 23:32:00,
2013-09-07 19:37:00,62.6,58.8,29.90,SSW,203,3.6,4.5,87,2.59,,,7.69,WUHU216HW,2013-09-07 23:37:00,
2013-09-07 19:42:00,62.6,58.8,29.90,WSW,248,1.6,4.5,87,2.59,,,7.69,WUHU216HW,2013-09-07 23:42:00,
2013-09-07 19:47:00,62.6,58.8,29.90,SSW,203,2.0,4.0,87,2.59,,,7.69,WUHU216HW,2013-09-07 23:47:00,
2013-09-07 19:52:00,62.5,58.6,29.90,West,270,0.2,3.4,87,2.59,,,7.69,WUHU216HW,2013-09-07 23:52:00,
2013-09-07 19:57:00,62.5,58.6,29.90,West,270,0.4,2.9,87,2.59,,,7.69,WUHU216HW,2013-09-07 23:57:00,
2013-09-07 20:02:00,62.5,58.6,29.91,SW,225,1.3,4.5,87,2.59,,,8.23,WUHU216HW,2013-09-08 00:02:00,
2013-09-07 20:07:00,62.5,58.6,29.90,West,270,2.2,4.5,87,2.59,,,8.23,WUHU216HW,2013-09-08 00:07:00,
2013-09-07 20:12:00,62.3,58.4,29.90,WSW,248,2.7,4.0,87,2.59,,,8.23,WUHU216HW,2013-09-08 00:12:00,
2013-09-07 20:17:00,62.3,58.4,29.90,WSW,248,2.0,3.8,87,2.59,,,8.23,WUHU216HW,2013-09-08 00:17:00,
2013-09-07 20:22:00,62.3,58.4,29.90,WSW,248,3.4,4.7,87,2.59,,,8.23,WUHU216HW,2013-09-08 00:22:00,
2013-09-07 20:27:00,62.1,58.2,29.90,WSW,248,0.2,4.7,87,2.59,,,8.23,WUHU216HW,2013-09-08 00:27:00,
2013-09-07 20:32:00,61.9,58.1,29.90,WNW,293,1.8,3.4,87,2.59,,,8.23,WUHU216HW,2013-09-08 00:32:00,
2013-09-07 20:37:00,61.9,58.1,29.90,WNW,293,2.2,3.4,87,2.59,,,8.23,WUHU216HW,2013-09-08 00:37:00,
2013-09-07 20:42:00,61.9,58.1,29.90,West,270,2.5,2.7,87,2.59,,,8.23,WUHU216HW,2013-09-08 00:42:00,
2013-09-07 20:47:00,61.9,58.1,29.90,NW,315,1.1,2.7,87,2.59,,,8.23,WUHU216HW,2013-09-08 00:47:00,
2013-09-07 20:52:00,61.7,57.9,29.90,SSW,203,1.8,2.7,87,2.59,,,8.23,WUHU216HW,2013-09-08 00:52:00,
2013-09-07 20:57:00,61.7,57.9,29.90,WSW,248,2.5,2.5,87,2.59,,,8.23,WUHU216HW,2013-09-08 00:57:00,
2013-09-07 21:02:00,61.7,57.9,29.90,WSW,248,1.8,2.5,87,2.59,,,8.77,WUHU216HW,2013-09-08 01:02:00,
2013-09-07 21:07:00,61.7,57.9,29.90,SW,225,1.8,2.5,87,2.59,,,8.77,WUHU216HW,2013-09-08 01:07:00,
2013-09-07 21:12:00,61.9,58.1,29.90,WNW,293,1.6,2.7,87,2.59,,,8.77,WUHU216HW,2013-09-08 01:12:00,
2013-09-07 21:17:00,61.9,58.4,29.90,NW,315,1.1,2.9,88,2.59,,,8.77,WUHU216HW,2013-09-08 01:17:00,
2013-09-07 21:22:00,61.9,58.1,29.90,NNW,338,1.8,2.9,87,2.59,,,8.77,WUHU216HW,2013-09-08 01:22:00,
2013-09-07 21:27:00,62.1,58.6,29.90,NW,315,3.4,3.8,88,2.59,,,8.77,WUHU216HW,2013-09-08 01:27:00,
2013-09-07 21:32:00,62.3,58.7,29.89,West,270,2.5,4.3,88,2.59,,,8.77,WUHU216HW,2013-09-08 01:32:00,
2013-09-07 21:37:00,62.6,59.0,29.89,NW,315,1.6,4.3,88,2.59,,,8.77,WUHU216HW,2013-09-08 01:37:00,
2013-09-07 21:42:00,62.8,59.2,29.89,WNW,293,1.6,3.6,88,2.59,,,8.77,WUHU216HW,2013-09-08 01:42:00,
2013-09-07 21:47:00,63.0,59.4,29.89,NW,315,1.1,4.0,88,2.59,,,8.77,WUHU216HW,2013-09-08 01:47:00,
2013-09-07 21:52:00,63.0,59.4,29.89,SW,225,1.1,4.0,88,2.59,,,8.77,WUHU216HW,2013-09-08 01:52:00,
2013-09-07 21:57:00,63.2,59.6,29.89,WNW,293,1.8,2.7,88,2.59,,,8.77,WUHU216HW,2013-09-08 01:57:00,
2013-09-07 22:02:00,63.4,59.8,29.89,NW,315,2.5,2.7,88,2.59,,,9.31,WUHU216HW,2013-09-08 02:02:00,
2013-09-07 22:07:00,63.4,59.5,29.89,WNW,293,2.0,2.5,87,2.59,,,9.31,WUHU216HW,2013-09-08 02:07:00,
2013-09-07 22:12:00,63.4,59.5,29.89,NW,315,2.0,2.5,87,2.59,,,9.31,WUHU216HW,2013-09-08 02:12:00,
2013-09-07 22:17:00,63.4,59.5,29.89,West,270,1.1,2.5,87,2.59,,,9.31,WUHU216HW,2013-09-08 02:17:00,
2013-09-07 22:22:00,63.5,59.7,29.89,WNW,293,2.9,3.4,87,2.59,,,9.31,WUHU216HW,2013-09-08 02:22:00,
2013-09-07 22:27:00,63.4,59.5,29.89,WSW,248,1.1,3.4,87,2.59,,,9.31,WUHU216HW,2013-09-08 02:27:00,
2013-09-07 22:32:00,63.4,59.5,29.89,SW,225,1.6,3.1,87,2.59,,,9.31,WUHU216HW,2013-09-08 02:32:00,
2013-09-07 22:37:00,63.4,59.5,29.89,WSW,248,0.0,2.0,87,2.59,,,9.31,WUHU216HW,2013-09-08 02:37:00,
2013-09-07 22:42:00,63.4,59.8,29.89,ENE,68,0.4,1.6,88,2.59,,,9.31,WUHU216HW,2013-09-08 02:42:00,
2013-09-07 22:47:00,63.5,59.9,29.89,ENE,68,0.0,1.1,88,2.61,,,9.33,WUHU216HW,2013-09-08 02:47:00,
2013-09-07 22:52:00,63.4,59.8,29.89,South,180,0.2,0.7,88,2.63,,,9.35,WUHU216HW,2013-09-08 02:52:00,
2013-09-07 22:57:00,63.4,59.8,29.89,South,180,0.0,0.7,88,2.64,,,9.36,WUHU216HW,2013-09-08 02:57:00,
2013-09-07 23:02:00,63.5,59.9,29.89,South,180,0.0,0.0,88,0.05,,,9.36,WUHU216HW,2013-09-08 03:02:00,
2013-09-07 23:07:00,63.5,59.9,29.89,WSW,248,0.7,0.7,88,0.05,,,9.36,WUHU216HW,2013-09-08 03:07:00,
2013-09-07 23:12:00,63.5,59.9,29.89,West,270,0.0,0.7,88,0.05,,,9.36,WUHU216HW,2013-09-08 03:12:00,
2013-09-07 23:17:00,63.5,59.9,29.89,SSW,203,0.0,0.4,88,0.05,,,9.36,WUHU216HW,2013-09-08 03:17:00,
2013-09-07 23:22:00,63.5,59.9,29.89,SSW,203,0.0,0.0,88,0.05,,,9.36,WUHU216HW,2013-09-08 03:22:00,
2013-09-07 23:27:00,63.5,59.9,29.89,SSW,203,0.0,0.0,88,0.05,,,9.36,WUHU216HW,2013-09-08 03:27:00,
2013-09-07 23:32:00,63.5,59.9,29.88,WSW,248,0.7,0.7,88,0.05,,,9.36,WUHU216HW,2013-09-08 03:32:00,
2013-09-07 23:37:00,63.5,59.9,29.89,WSW,248,0.0,0.7,88,0.05,,,9.36,WUHU216HW,2013-09-08 03:37:00,
2013-09-07 23:42:00,63.5,59.9,29.88,SSW,203,0.0,0.7,88,0.05,,,9.36,WUHU216HW,2013-09-08 03:42:00,
2013-09-07 23:47:00,63.5,60.3,29.88,South,180,0.0,0.0,89,0.01,,,9.36,WUHU216HW,2013-09-08 03:47:00,
2013-09-07 23:52:00,63.4,60.1,29.88,South,180,0.0,0.0,89,0.00,,,9.36,WUHU216HW,2013-09-08 03:52:00,
2013-09-07 23:57:00,63.4,60.1,29.88,South,180,0.0,0.0,89,0.00,,,9.36,WUHU216HW,2013-09-08 03:57:00,